Time_in_sec,gx,gy,gz
1312472464.24443817,-0.00867040,-0.00177258,-0.99996084
1312472464.29629326,-0.00877749,-0.00175814,-0.99995993
1312472464.34463501,-0.00889845,-0.00170898,-0.99995895
1312472464.39251876,-0.00885211,-0.00163291,-0.99995949
1312472464.44336510,-0.00862467,-0.00176263,-0.99996125
1312472464.49250555,-0.00865736,-0.00200051,-0.99996052
1312472464.54451537,-0.00870415,-0.00187221,-0.99996037
1312472464.59652781,-0.00893403,-0.00182723,-0.99995842
1312472464.64444852,-0.00879486,-0.00168369,-0.99995991
1312472464.69645524,-0.00883579,-0.00170654,-0.99995951
1312472464.74451351,-0.00883630,-0.00179979,-0.99995934
1312472464.79246140,-0.00858180,-0.00173549,-0.99996167
1312472464.84329915,-0.00854385,-0.00166952,-0.99996211
1312472464.89579701,-0.00846308,-0.00163667,-0.99996285
1312472464.94331813,-0.00855501,-0.00141653,-0.99996240
1312472464.99596643,-0.00845700,-0.00167844,-0.99996283
1312472465.04344845,-0.00866990,-0.00171081,-0.99996095
1312472465.09243035,-0.00830898,-0.00167891,-0.99996407
1312472465.14329839,-0.00808974,-0.00181859,-0.99996562
1312472465.19634461,-0.00798487,-0.00196906,-0.99996618
1312472465.24330521,-0.00793301,-0.00202926,-0.99996647
1312472465.29640698,-0.00780695,-0.00201719,-0.99996749
1312472465.34333491,-0.00759078,-0.00233001,-0.99996848
1312472465.39635253,-0.00746054,-0.00242748,-0.99996922
1312472465.44328237,-0.00741085,-0.00257427,-0.99996923
1312472465.49633861,-0.00740445,-0.00256730,-0.99996929
1312472465.54329038,-0.00742883,-0.00244576,-0.99996941
1312472465.59633541,-0.00748194,-0.00232848,-0.99996930
1312472465.64338422,-0.00756306,-0.00222017,-0.99996894
1312472465.69642448,-0.00772427,-0.00237891,-0.99996734
1312472465.74435902,-0.00758569,-0.00236351,-0.99996844
1312472465.79643583,-0.00759391,-0.00240367,-0.99996828
1312472465.84330702,-0.00760124,-0.00245953,-0.99996809
1312472465.89644265,-0.00771837,-0.00238766,-0.99996736
1312472465.94334507,-0.00789569,-0.00220201,-0.99996640
1312472465.99642634,-0.00782982,-0.00219406,-0.99996694
1312472466.04337525,-0.00785869,-0.00236408,-0.99996633
1312472466.09643555,-0.00801075,-0.00212382,-0.99996566
1312472466.14343524,-0.00788206,-0.00243765,-0.99996596
1312472466.19643807,-0.00764491,-0.00227015,-0.99996820
1312472466.24444699,-0.00750680,-0.00222443,-0.99996935
1312472466.29642630,-0.00725420,-0.00238004,-0.99997086
1312472466.34335732,-0.00707315,-0.00211275,-0.99997275
1312472466.39642572,-0.00688307,-0.00242639,-0.99997337
1312472466.44331455,-0.00709054,-0.00229659,-0.99997222
1312472466.49643135,-0.00697367,-0.00228698,-0.99997307
1312472466.54313469,-0.00703123,-0.00215790,-0.99997295
1312472466.59644532,-0.00696008,-0.00201029,-0.99997376
1312472466.64443994,-0.00679692,-0.00221757,-0.99997444
1312472466.69540286,-0.00683251,-0.00230982,-0.99997399
1312472466.74443913,-0.00665770,-0.00238928,-0.99997498
1312472466.79646802,-0.00647079,-0.00244204,-0.99997608
1312472466.84331822,-0.00659641,-0.00254018,-0.99997502
1312472466.89636278,-0.00623078,-0.00228897,-0.99997797
1312472466.94446921,-0.00614168,-0.00255211,-0.99997788
1312472466.99640918,-0.00628352,-0.00239733,-0.99997738
1312472467.04443073,-0.00600946,-0.00249408,-0.99997883
1312472467.09644389,-0.00599895,-0.00275649,-0.99997821
1312472467.14444828,-0.00581373,-0.00307257,-0.99997838
1312472467.19541454,-0.00587925,-0.00305462,-0.99997805
1312472467.24348164,-0.00582295,-0.00311403,-0.99997820
1312472467.29645848,-0.00594849,-0.00317812,-0.99997726
1312472467.34444737,-0.00589321,-0.00341294,-0.99997681
1312472467.39648890,-0.00588922,-0.00333816,-0.99997709
1312472467.44342709,-0.00590488,-0.00335840,-0.99997693
1312472467.49646139,-0.00577986,-0.00360929,-0.99997678
1312472467.54430819,-0.00556154,-0.00363610,-0.99997792
1312472467.59646201,-0.00567417,-0.00348898,-0.99997782
1312472467.64330578,-0.00558710,-0.00343283,-0.99997850
1312472467.69535065,-0.00554821,-0.00329911,-0.99997917
1312472467.74443865,-0.00575809,-0.00337322,-0.99997773
1312472467.79543757,-0.00579746,-0.00331533,-0.99997770
1312472467.84329534,-0.00574213,-0.00336465,-0.99997785
1312472467.89637804,-0.00573034,-0.00319568,-0.99997848
1312472467.94441581,-0.00586421,-0.00307961,-0.99997806
1312472467.99234366,-0.00557176,-0.00321109,-0.99997932
1312472468.04348803,-0.00555893,-0.00319385,-0.99997945
1312472468.09643698,-0.00556873,-0.00315194,-0.99997953
1312472468.14435220,-0.00579269,-0.00315803,-0.99997824
1312472468.19636893,-0.00555971,-0.00303863,-0.99997993
1312472468.24431205,-0.00550056,-0.00306654,-0.99998017
1312472468.29636908,-0.00544834,-0.00328333,-0.99997977
1312472468.34435987,-0.00552127,-0.00301416,-0.99998022
1312472468.39231038,-0.00599699,-0.00301004,-0.99997749
1312472468.44330668,-0.00592512,-0.00321492,-0.99997728
1312472468.49235773,-0.00586157,-0.00314385,-0.99997788
1312472468.54732323,-0.00551048,-0.00306651,-0.99998012
1312472468.59644532,-0.00554626,-0.00311139,-0.99997978
1312472468.64331627,-0.00535118,-0.00307446,-0.99998096
1312472468.69643736,-0.00540549,-0.00291114,-0.99998115
1312472468.74332261,-0.00543316,-0.00294735,-0.99998090
1312472468.79643703,-0.00551510,-0.00282358,-0.99998081
1312472468.84341979,-0.00553814,-0.00272968,-0.99998094
1312472468.89531136,-0.00546650,-0.00284790,-0.99998100
1312472468.94335890,-0.00538507,-0.00305728,-0.99998083
1312472468.99586844,-0.00547681,-0.00287817,-0.99998086
1312472469.04368758,-0.00543940,-0.00288189,-0.99998105
1312472469.09643245,-0.00630229,-0.00224489,-0.99997762
1312472469.14329648,-0.00636897,-0.00216422,-0.99997738
1312472469.19629931,-0.00607737,-0.00223242,-0.99997904
1312472469.24443245,-0.00598570,-0.00209869,-0.99997988
1312472469.29643703,-0.00580352,-0.00221835,-0.99998070
1312472469.34409523,-0.00649580,-0.00186419,-0.99997716
1312472469.39643025,-0.00633571,-0.00194299,-0.99997804
1312472469.44430470,-0.00676218,-0.00179825,-0.99997552
1312472469.49532533,-0.00651179,-0.00161679,-0.99997749
1312472469.54436684,-0.00619972,-0.00161700,-0.99997947
1312472469.59532475,-0.00734787,-0.00217482,-0.99997064
1312472469.64336300,-0.00723530,-0.00207499,-0.99997167
1312472469.69528389,-0.00725007,-0.00199332,-0.99997173
1312472469.74331117,-0.00722801,-0.00201414,-0.99997185
1312472469.79630637,-0.00703167,-0.00193191,-0.99997341
1312472469.84331560,-0.00727766,-0.00191222,-0.99997169
1312472469.89643621,-0.00741861,-0.00195380,-0.99997057
1312472469.94331050,-0.00776966,-0.00183402,-0.99996813
1312472469.99530768,-0.00773952,-0.00208356,-0.99996788
1312472470.04336977,-0.00760150,-0.00210197,-0.99996890
1312472470.09533238,-0.00817300,-0.00172425,-0.99996511
1312472470.14331913,-0.00824950,-0.00147462,-0.99996489
1312472470.19647360,-0.00812800,-0.00127927,-0.99996615
1312472470.24333024,-0.00844760,-0.00142382,-0.99996330
1312472470.29541540,-0.00857610,-0.00123786,-0.99996246
1312472470.34445786,-0.00834795,-0.00104560,-0.99996461
1312472470.39542532,-0.00807433,-0.00111783,-0.99996678
1312472470.44348192,-0.00812372,-0.00099921,-0.99996650
1312472470.49533868,-0.00797843,-0.00118370,-0.99996747
1312472470.54740429,-0.00772079,-0.00120040,-0.99996947
1312472470.59541559,-0.00775663,-0.00093435,-0.99996948
1312472470.64330482,-0.00780597,-0.00106049,-0.99996897
1312472470.69243312,-0.00775254,-0.00115513,-0.99996928
1312472470.74332929,-0.00762843,-0.00105185,-0.99997035
1312472470.79642701,-0.00762038,-0.00082615,-0.99997062
1312472470.84350204,-0.00800658,-0.00083031,-0.99996760
1312472470.89642930,-0.00774249,-0.00102181,-0.99996950
1312472470.94329739,-0.00777595,-0.00111348,-0.99996915
1312472470.99644685,-0.00759225,-0.00115219,-0.99997051
1312472471.04435205,-0.00769276,-0.00094180,-0.99996997
1312472471.09239316,-0.00725423,-0.00077315,-0.99997339
1312472471.14359570,-0.00744531,-0.00068043,-0.99997205
1312472471.19237661,-0.00740745,-0.00068686,-0.99997233
1312472471.24457216,-0.00762519,-0.00069157,-0.99997069
1312472471.29638481,-0.00790039,-0.00064029,-0.99996859
1312472471.34426498,-0.00748442,-0.00078064,-0.99997169
1312472471.39637256,-0.00745917,-0.00067597,-0.99997195
1312472471.44328237,-0.00745158,-0.00048587,-0.99997212
1312472471.49636984,-0.00733156,-0.00047034,-0.99997301
1312472471.54435515,-0.00727354,-0.00014536,-0.99997354
1312472471.59643698,-0.00749541,-0.00084775,-0.99997155
1312472471.64430428,-0.00771288,-0.00061712,-0.99997006
1312472471.69642591,-0.00798224,-0.00045267,-0.99996804
1312472471.74328184,-0.00799547,-0.00021287,-0.99996801
1312472471.79642940,-0.00808765,-0.00010537,-0.99996729
1312472471.84328270,-0.00792531,0.00037591,-0.99996852
1312472471.89644313,-0.00780185,0.00044077,-0.99996947
1312472471.94329715,-0.00771080,0.00037859,-0.99997020
1312472471.99642420,-0.00742177,0.00036171,-0.99997239
1312472472.04345965,-0.00718245,0.00044995,-0.99997410
1312472472.09635234,-0.00696480,0.00027119,-0.99997571
1312472472.14442945,-0.00683882,0.00054679,-0.99997647
1312472472.19640422,-0.00664649,0.00074301,-0.99997764
1312472472.24334288,-0.00687777,0.00086166,-0.99997598
1312472472.29643559,-0.00681286,0.00105185,-0.99997624
1312472472.34328270,-0.00683363,0.00095260,-0.99997620
1312472472.39642859,-0.00668316,0.00110736,-0.99997705
1312472472.44435024,-0.00665039,0.00105315,-0.99997733
1312472472.49643826,-0.00659548,0.00102695,-0.99997772
1312472472.54330301,-0.00661493,0.00103480,-0.99997759
1312472472.59642720,-0.00679137,0.00045224,-0.99997684
1312472472.64340258,-0.00683998,0.00064699,-0.99997640
1312472472.69642401,-0.00716239,0.00052190,-0.99997421
1312472472.74442434,-0.00697619,0.00066362,-0.99997545
1312472472.79644346,-0.00695102,0.00037472,-0.99997577
1312472472.84332871,-0.00675924,-0.00111849,-0.99997653
1312472472.89646125,-0.00697054,-0.00135824,-0.99997478
1312472472.94339919,-0.00676118,-0.00133679,-0.99997625
1312472472.99642491,-0.00668651,-0.00140353,-0.99997666
1312472473.04331470,-0.00631312,-0.00145299,-0.99997902
1312472473.09643483,-0.00592860,-0.00169072,-0.99998100
1312472473.14335299,-0.00574523,-0.00187969,-0.99998173
1312472473.19643211,-0.00559978,-0.00182310,-0.99998266
1312472473.24336600,-0.00547165,-0.00158309,-0.99998378
1312472473.29643130,-0.00543996,-0.00171160,-0.99998374
1312472473.34341431,-0.00529358,-0.00170179,-0.99998454
1312472473.39634466,-0.00531996,-0.00183946,-0.99998416
1312472473.44627333,-0.00519824,-0.00186812,-0.99998474
1312472473.49535942,-0.00523438,-0.00200721,-0.99998429
1312472473.54332924,-0.00537946,-0.00230868,-0.99998287
1312472473.59541202,-0.00494760,-0.00246593,-0.99998472
1312472473.64336848,-0.00501398,-0.00244161,-0.99998445
1312472473.69633055,-0.00498318,-0.00233214,-0.99998486
1312472473.74333668,-0.00485826,-0.00259655,-0.99998483
1312472473.79642296,-0.00477386,-0.00231001,-0.99998594
1312472473.84343600,-0.00545888,-0.00227552,-0.99998251
1312472473.89542317,-0.00555202,-0.00245743,-0.99998157
1312472473.94329476,-0.00542772,-0.00227173,-0.99998269
1312472473.99243641,-0.00538313,-0.00235153,-0.99998275
1312472474.04447055,-0.00536908,-0.00220546,-0.99998315
1312472474.09640336,-0.00634279,-0.00209772,-0.99997768
1312472474.14327788,-0.00619400,-0.00223009,-0.99997833
1312472474.19527364,-0.00595119,-0.00243559,-0.99997933
1312472474.24328899,-0.00598546,-0.00240385,-0.99997920
1312472474.29567575,-0.00595027,-0.00234537,-0.99997955
1312472474.34328914,-0.00622062,-0.00248889,-0.99997755
1312472474.39639497,-0.00615550,-0.00264838,-0.99997755
1312472474.44330335,-0.00610557,-0.00278951,-0.99997747
1312472474.49630976,-0.00600653,-0.00297490,-0.99997754
1312472474.54331470,-0.00616391,-0.00306690,-0.99997630
1312472474.59639740,-0.00548848,-0.00350014,-0.99997881
1312472474.64442611,-0.00553847,-0.00360044,-0.99997818
1312472474.69642878,-0.00555360,-0.00350646,-0.99997843
1312472474.73628283,-0.00561973,-0.00387055,-0.99997672
1312472474.79643369,-0.00569077,-0.00372259,-0.99997688
1312472474.83629417,-0.00578341,-0.00379438,-0.99997608
1312472474.89644384,-0.00567246,-0.00360117,-0.99997743
1312472474.93531227,-0.00543285,-0.00377816,-0.99997810
1312472474.99630618,-0.00525621,-0.00370965,-0.99997931
1312472475.03585863,-0.00521762,-0.00372057,-0.99997947
1312472475.08442950,-0.00517396,-0.00371977,-0.99997970
1312472475.13547564,-0.00527002,-0.00405690,-0.99997788
1312472475.18741846,-0.00515110,-0.00455207,-0.99997637
1312472475.23642945,-0.00523919,-0.00452137,-0.99997605
1312472475.28803062,-0.00546179,-0.00448137,-0.99997504
1312472475.33665347,-0.00651338,-0.00411246,-0.99997033
1312472475.38742495,-0.00652852,-0.00412564,-0.99997018
1312472475.43530679,-0.00638207,-0.00427844,-0.99997048
1312472475.48429203,-0.00633967,-0.00426365,-0.99997081
1312472475.53688955,-0.00618909,-0.00451659,-0.99997065
1312472475.58730555,-0.00638217,-0.00387687,-0.99997212
1312472475.63530469,-0.00665351,-0.00388292,-0.99997033
1312472475.68442059,-0.00667506,-0.00382623,-0.99997040
1312472475.73532152,-0.00625023,-0.00355647,-0.99997414
1312472475.78438735,-0.00630548,-0.00375381,-0.99997307
1312472475.83532095,-0.00637642,-0.00374893,-0.99997264
1312472475.88430381,-0.00618567,-0.00390681,-0.99997324
1312472475.93528581,-0.00651348,-0.00405019,-0.99997058
1312472475.98742318,-0.00661384,-0.00415085,-0.99996951
1312472476.03929496,-0.00706561,-0.00433899,-0.99996562
1312472476.08843684,-0.00735764,-0.00375734,-0.99996587
1312472476.13628054,-0.00713582,-0.00361906,-0.99996799
1312472476.18741345,-0.00728789,-0.00363367,-0.99996684
1312472476.23531604,-0.00764381,-0.00358786,-0.99996435
1312472476.28742886,-0.00765031,-0.00344509,-0.99996480
1312472476.33532286,-0.00865731,-0.00287869,-0.99995838
1312472476.38730288,-0.00838211,-0.00289916,-0.99996067
1312472476.43534374,-0.00826642,-0.00267698,-0.99996225
1312472476.48741841,-0.00826014,-0.00258239,-0.99996255
1312472476.53658438,-0.00851409,-0.00249110,-0.99996065
1312472476.58735728,-0.00953372,-0.00196854,-0.99995262
1312472476.63529301,-0.00950372,-0.00188420,-0.99995306
1312472476.68351245,-0.00948401,-0.00175382,-0.99995349
1312472476.73529601,-0.00930154,-0.00159643,-0.99995547
1312472476.78741097,-0.00912738,-0.00179404,-0.99995674
1312472476.83532286,-0.00809476,-0.00212360,-0.99996498
1312472476.88742208,-0.00826168,-0.00213694,-0.99996359
1312472476.93631124,-0.00821986,-0.00214490,-0.99996392
1312472476.99233389,-0.00819673,-0.00219023,-0.99996401
1312472477.03630733,-0.00840045,-0.00238928,-0.99996186
1312472477.08744454,-0.00831062,-0.00298451,-0.99996101
1312472477.13533998,-0.00835931,-0.00308470,-0.99996030
1312472477.18432665,-0.00828599,-0.00297192,-0.99996125
1312472477.23530722,-0.00822496,-0.00302141,-0.99996161
1312472477.28437829,-0.00818179,-0.00301338,-0.99996199
1312472477.33630705,-0.00810387,-0.00386671,-0.99995969
1312472477.38733482,-0.00832840,-0.00382585,-0.99995800
1312472477.43529844,-0.00830186,-0.00409574,-0.99995715
1312472477.48734331,-0.00821421,-0.00412412,-0.99995776
1312472477.53930879,-0.00843679,-0.00399425,-0.99995643
1312472477.58832812,-0.00762716,-0.00502568,-0.99995828
1312472477.63528776,-0.00728677,-0.00499820,-0.99996096
1312472477.68431640,-0.00740328,-0.00486427,-0.99996076
1312472477.73537922,-0.00725744,-0.00493521,-0.99996149
1312472477.78734589,-0.00741722,-0.00476120,-0.99996116
1312472477.83637857,-0.00794333,-0.00410396,-0.99996003
1312472477.88404155,-0.00805708,-0.00404908,-0.99995934
1312472477.93661475,-0.00841321,-0.00404410,-0.99995643
1312472477.98415303,-0.00818146,-0.00428693,-0.99995734
1312472478.03927207,-0.00804821,-0.00415709,-0.99995897
1312472478.08444309,-0.00876623,-0.00431021,-0.99995229
1312472478.13628864,-0.00871692,-0.00435147,-0.99995254
1312472478.19652510,-0.00870584,-0.00425413,-0.99995305
1312472478.23637462,-0.00836352,-0.00434229,-0.99995560
1312472478.28741288,-0.00844551,-0.00433770,-0.99995493
1312472478.33628345,-0.00840365,-0.00420953,-0.99995583
1312472478.38431549,-0.00847134,-0.00411181,-0.99995566
1312472478.43642116,-0.00827341,-0.00427042,-0.99995666
1312472478.48844481,-0.00822764,-0.00435364,-0.99995667
1312472478.53532434,-0.00813994,-0.00441383,-0.99995713
1312472478.59628534,-0.00808089,-0.00481103,-0.99995578
1312472478.63633108,-0.00806048,-0.00482087,-0.99995589
1312472478.68746114,-0.00812846,-0.00485462,-0.99995518
1312472478.73642683,-0.00855947,-0.00492334,-0.99995125
1312472478.78432584,-0.00842899,-0.00490339,-0.99995245
1312472478.83647299,-0.00825317,-0.00451829,-0.99995573
1312472478.88729739,-0.00820756,-0.00420198,-0.99995749
1312472478.93528247,-0.00810477,-0.00432886,-0.99995779
1312472478.98854280,-0.00799532,-0.00417035,-0.99995934
1312472479.03636336,-0.00788855,-0.00396358,-0.99996103
1312472479.08742929,-0.00891164,-0.00321889,-0.99995511
1312472479.13548112,-0.00895657,-0.00311088,-0.99995505
1312472479.18827844,-0.00902211,-0.00335343,-0.99995368
1312472479.23649502,-0.00904650,-0.00325671,-0.99995378
1312472479.28831887,-0.00928855,-0.00310543,-0.99995204
1312472479.33536601,-0.00942414,-0.00269735,-0.99995195
1312472479.38836241,-0.00913994,-0.00285102,-0.99995417
1312472479.43531394,-0.00873774,-0.00300486,-0.99995731
1312472479.48836160,-0.00863227,-0.00308583,-0.99995798
1312472479.53529811,-0.00863696,-0.00309519,-0.99995791
1312472479.58731747,-0.00897849,-0.00269232,-0.99995607
1312472479.63928795,-0.00886693,-0.00304642,-0.99995605
1312472479.68743587,-0.00877012,-0.00288463,-0.99995738
1312472479.73629999,-0.00904313,-0.00265154,-0.99995559
1312472479.78439260,-0.00898323,-0.00276520,-0.99995583
1312472479.83533192,-0.00916220,-0.00283099,-0.99995402
1312472479.88833380,-0.00894356,-0.00263677,-0.99995653
1312472479.93632054,-0.00909755,-0.00269123,-0.99995499
1312472479.98741293,-0.00887591,-0.00267780,-0.99995702
1312472480.03528666,-0.00872597,-0.00273213,-0.99995820
1312472480.08442497,-0.00895319,-0.00285816,-0.99995583
1312472480.13630295,-0.00880111,-0.00302153,-0.99995670
1312472480.19633198,-0.00867045,-0.00299877,-0.99995791
1312472480.23632884,-0.00917460,-0.00282904,-0.99995391
1312472480.28744030,-0.00908045,-0.00274051,-0.99995502
1312472480.33532691,-0.00857019,-0.00320056,-0.99995815
1312472480.38435173,-0.00891630,-0.00300165,-0.99995574
1312472480.43528628,-0.00887269,-0.00283470,-0.99995662
1312472480.48729444,-0.00892258,-0.00277920,-0.99995633
1312472480.53639078,-0.00889786,-0.00266148,-0.99995687
1312472480.58727980,-0.00886462,-0.00296450,-0.99995631
1312472480.63629127,-0.00865703,-0.00308878,-0.99995776
1312472480.68435860,-0.00873772,-0.00303238,-0.99995723
1312472480.73534560,-0.00870982,-0.00297451,-0.99995764
1312472480.78473043,-0.00860765,-0.00279007,-0.99995906
1312472480.83531427,-0.00890404,-0.00263301,-0.99995689
1312472480.88443518,-0.00888342,-0.00251397,-0.99995738
1312472480.93627238,-0.00875145,-0.00252677,-0.99995851
1312472480.98436832,-0.00871587,-0.00249572,-0.99995890
1312472481.03530097,-0.00877901,-0.00244162,-0.99995848
1312472481.08441877,-0.00870012,-0.00280685,-0.99995821
1312472481.13540626,-0.00860521,-0.00303830,-0.99995836
1312472481.18429995,-0.00883753,-0.00301714,-0.99995640
1312472481.23641276,-0.00862997,-0.00291898,-0.99995850
1312472481.28492451,-0.00863964,-0.00271801,-0.99995898
1312472481.33535647,-0.00814103,-0.00234403,-0.99996411
1312472481.39646649,-0.00805379,-0.00243489,-0.99996460
1312472481.43531585,-0.00846565,-0.00232838,-0.99996145
1312472481.48443627,-0.00859476,-0.00241407,-0.99996015
1312472481.53528571,-0.00863839,-0.00244586,-0.99995970
1312472481.58396959,-0.00896482,-0.00234813,-0.99995706
1312472481.63651347,-0.00895850,-0.00228015,-0.99995727
1312472481.68442321,-0.00903661,-0.00200226,-0.99995716
1312472481.73635483,-0.00904194,-0.00205541,-0.99995701
1312472481.78436971,-0.00927270,-0.00197565,-0.99995506
1312472481.83635473,-0.00837222,-0.00146133,-0.99996388
1312472481.88443208,-0.00837382,-0.00149800,-0.99996382
1312472481.93637443,-0.00832760,-0.00116086,-0.99996465
1312472481.98745298,-0.00811051,-0.00120347,-0.99996639
1312472482.03528380,-0.00812949,-0.00123090,-0.99996620
1312472482.08443785,-0.00775826,-0.00114696,-0.99996925
1312472482.13549209,-0.00747286,-0.00112261,-0.99997145
1312472482.19541287,-0.00750750,-0.00109116,-0.99997122
1312472482.23529148,-0.00744628,-0.00096407,-0.99997181
1312472482.28442574,-0.00744579,-0.00073931,-0.99997201
1312472482.33534813,-0.00696640,-0.00165794,-0.99997436
1312472482.38805795,-0.00697904,-0.00174832,-0.99997412
1312472482.43647957,-0.00698731,-0.00180498,-0.99997396
1312472482.48825169,-0.00699993,-0.00177196,-0.99997393
1312472482.53629136,-0.00707118,-0.00181912,-0.99997334
1312472482.59252310,-0.00732093,-0.00212211,-0.99997095
1312472482.63529325,-0.00735923,-0.00229773,-0.99997028
1312472482.68849492,-0.00733104,-0.00265936,-0.99996959
1312472482.73530388,-0.00720387,-0.00281304,-0.99997010
1312472482.78433490,-0.00727840,-0.00266850,-0.99996995
1312472482.84331965,-0.00804618,-0.00186818,-0.99996588
1312472482.89934015,-0.00818620,-0.00191756,-0.99996465
